TimeCDT,TemperatureF,Dew PointF,Humidity,Sea Level PressureIn,VisibilityMPH,Wind Direction,Wind SpeedMPH,Gust SpeedMPH,PrecipitationIn,Events,Conditions,WindDirDegrees,DateUTC
12:56 AM,57.9,52.0,81,30.05,10.0,North,5.8,-,N/A,,Clear,10,2012-10-09 05:56:00
1:56 AM,57.0,52.0,83,30.05,10.0,North,6.9,-,N/A,,Clear,10,2012-10-09 06:56:00
2:56 AM,55.9,51.1,84,30.04,10.0,North,5.8,-,N/A,,Clear,10,2012-10-09 07:56:00
3:56 AM,55.0,51.1,86,30.03,10.0,North,4.6,-,N/A,,Clear,10,2012-10-09 08:56:00
4:56 AM,54.0,51.1,90,30.04,10.0,North,4.6,-,N/A,,Clear,10,2012-10-09 09:56:00
5:56 AM,54.0,51.1,90,30.05,10.0,North,3.5,-,N/A,,Clear,10,2012-10-09 10:56:00
6:56 AM,53.1,51.1,93,30.06,9.0,North,3.5,-,N/A,,Clear,360,2012-10-09 11:56:00
7:24 AM,53.6,51.8,94,30.11,7.0,North,5.8,-,N/A,,Scattered Clouds,360,2012-10-09 12:24:00
7:31 AM,53.6,51.8,94,30.11,7.0,Variable,4.6,-,N/A,,Mostly Cloudy,0,2012-10-09 12:31:00
7:56 AM,55.0,53.1,93,30.07,7.0,NE,3.5,-,N/A,,Mostly Cloudy,40,2012-10-09 12:56:00
8:18 AM,55.4,53.6,94,30.11,6.0,North,3.5,-,N/A,,Mostly Cloudy,360,2012-10-09 13:18:00
8:42 AM,57.2,53.6,88,30.12,6.0,NNE,3.5,-,N/A,,Mostly Cloudy,20,2012-10-09 13:42:00
8:56 AM,59.0,55.0,87,30.09,7.0,North,3.5,-,N/A,,Scattered Clouds,10,2012-10-09 13:56:00
9:56 AM,66.0,57.9,75,30.09,10.0,North,3.5,-,N/A,,Partly Cloudy,350,2012-10-09 14:56:00
10:56 AM,72.0,59.0,64,30.09,10.0,NW,5.8,-,N/A,,Clear,310,2012-10-09 15:56:00
11:56 AM,75.0,57.9,55,30.07,10.0,NW,9.2,-,N/A,,Partly Cloudy,310,2012-10-09 16:56:00
12:56 PM,75.9,57.9,54,30.05,10.0,Variable,3.5,-,N/A,,Partly Cloudy,0,2012-10-09 17:56:00
1:56 PM,77.0,59.0,54,30.02,10.0,WNW,5.8,-,N/A,,Partly Cloudy,290,2012-10-09 18:56:00
2:56 PM,79.0,57.0,47,30.01,10.0,Calm,Calm,-,N/A,,Partly Cloudy,0,2012-10-09 19:56:00
3:56 PM,79.0,57.0,47,30.00,7.0,NW,3.5,-,N/A,,Partly Cloudy,310,2012-10-09 20:56:00
4:56 PM,79.0,57.9,48,29.99,10.0,West,3.5,-,N/A,,Clear,280,2012-10-09 21:56:00
5:56 PM,75.9,59.0,56,29.99,10.0,Calm,Calm,-,N/A,,Clear,0,2012-10-09 22:56:00
6:56 PM,64.0,61.0,90,30.00,10.0,Calm,Calm,-,N/A,,Clear,0,2012-10-09 23:56:00
7:56 PM,61.0,59.0,93,30.02,7.0,Calm,Calm,-,N/A,,Clear,0,2012-10-10 00:56:00
8:56 PM,62.1,60.1,93,30.03,7.0,Calm,Calm,-,N/A,,Clear,0,2012-10-10 01:56:00
9:56 PM,60.1,57.9,93,30.04,9.0,North,3.5,-,N/A,,Clear,10,2012-10-10 02:56:00
10:56 PM,57.0,55.9,96,30.04,10.0,NE,3.5,-,N/A,,Clear,50,2012-10-10 03:56:00
11:56 PM,57.9,55.9,93,30.04,10.0,Calm,Calm,-,N/A,,Clear,0,2012-10-10 04:56:00